GW3084 Weather Reports


time (UTC)temp
C
wind
direction
speed
KPH
gust
KPH
rain 1hr
cm
rain 24hr
cm
rain mn
cm
humidity
%
barometer
mb
20260906163016 25 124 4.8 9.7 0.00 0.00 0.00 69 1021.6
20260906162052 26 121 3.2 11.3 0.00 0.00 0.00 68 1021.6
20260906161029 25 108 3.2 9.7 0.00 0.00 0.00 69 1021.5
20260906160026 25 123 1.6 9.7 0.00 0.00 0.00 69 1021.6
20260906155043 25 124 3.2 11.3 0.00 0.00 0.00 71 1021.7
20260906154019 24 118 4.8 12.9 0.00 0.00 0.00 71 1021.8
20260906153017 24 105 6.4 12.9 0.00 0.00 0.00 70 1021.7
20260906152033 24 118 3.2 9.7 0.00 0.00 0.00 70 1021.6
20260906151030 25 95 4.8 11.3 0.00 0.00 0.00 68 1021.4
20260906150026 25 106 4.8 11.3 0.00 0.00 0.00 67 1021.4
20260906145043 25 114 3.2 9.7 0.00 0.00 0.00 66 1021.4
20260906144020 25 113 3.2 9.7 0.00 0.00 0.00 66 1021.4
20260906143037 25 106 3.2 6.4 0.00 0.00 0.00 67 1021.4
20260906142034 25 113 1.6 6.4 0.00 0.00 0.00 70 1021.4
20260906141051 24 105 4.8 11.3 0.00 0.00 0.00 70 1021.2
20260906140048 24 106 3.2 9.7 0.00 0.00 0.00 70 1021.1
20260906134022 23 116 1.6 6.4 0.00 0.00 0.00 75 1021.0
20260906133019 22 115 1.6 6.4 0.00 0.00 0.00 79 1021.0
20260906132034 21 117 0.0 3.2 0.00 0.00 0.00 82 1021.1
20260906131031 21 122 0.0 4.8 0.00 0.00 0.00 81 1021.1
20260906130028 22 106 1.6 4.8 0.00 0.00 0.00 80 1020.9
20260906125025 21 118 1.6 4.8 0.00 0.00 0.00 86 1020.7
20260906124022 19 102 0.0 3.2 0.00 0.00 0.00 93 1020.5
20260906123018 18 92 0.0 1.6 0.00 0.00 0.00 95 1020.5
20260906122035 18 96 0.0 1.6 0.00 0.00 0.00 96 1020.4
20260906121032 18 304 0.0 1.6 0.00 0.00 0.00 96 1020.3
20260906120029 18 305 0.0 1.6 0.00 0.00 0.00 95 1020.1
20260906115025 18 305 0.0 1.6 0.00 0.00 0.00 95 1020.0
20260906114022 18 307 0.0 1.6 0.00 0.00 0.00 94 1019.9
20260906113039 18 225 0.0 1.6 0.00 0.00 0.00 95 1019.7
20260906112034 18 279 0.0 1.6 0.00 0.00 0.00 95 1019.6
20260906111032 18 250 0.0 1.6 0.00 0.00 0.00 95 1019.6
20260906110026 18 256 0.0 1.6 0.00 0.00 0.00 95 1019.5
20260906105041 18 233 0.0 3.2 0.00 0.00 0.00 95 1019.5
20260906104017 18 265 0.0 1.6 0.00 0.00 0.00 95 1019.4
20260906103034 18 233 0.0 1.6 0.00 0.00 0.00 96 1019.3
20260906102030 18 249 0.0 1.6 0.00 0.00 0.00 96 1019.4
20260906101026 18 272 0.0 1.6 0.00 0.00 0.00 96 1019.4
20260906100044 18 221 0.0 3.2 0.00 0.00 0.00 97 1019.4
20260906095020 18 266 0.0 3.2 0.00 0.00 0.00 99 1019.3
20260906094016 18 256 1.6 3.2 0.00 0.00 0.00 99 1019.1
20260906093033 18 214 0.0 3.2 0.00 0.00 0.00 99 1019.1
20260906092030 17 236 0.0 3.2 0.00 0.00 0.00 99 1019.1
20260906091027 17 0.0 0.0 0.00 0.00 0.00 99 1019.0
20260906090024 17 226 0.0 1.6 0.00 0.00 0.00 99 1019.1
20260906085020 17 0.0 0.0 0.00 0.00 0.00 99 1019.1
20260906084038 17 0.0 0.0 0.00 0.00 0.00 99 1019.2
20260906083034 18 324 0.0 1.6 0.00 0.00 0.00 98 1019.1
20260906082030 18 332 0.0 3.2 0.00 0.00 0.00 99 1019.1
20260906081027 18 339 1.6 4.8 0.00 0.00 0.00 99 1019.0
20260906080024 18 340 0.0 3.2 0.00 0.00 0.00 99 1018.9
20260906075041 18 338 1.6 3.2 0.00 0.00 0.00 99 1018.8
20260906074019 18 338 1.6 4.8 0.00 0.00 0.00 99 1018.6
20260906073035 18 335 3.2 6.4 0.00 0.00 0.00 99 1018.5
20260906072031 18 335 1.6 4.8 0.00 0.00 0.00 99 1018.4
20260906071028 18 342 3.2 6.4 0.00 0.00 0.00 99 1018.5
20260906070025 18 356 1.6 4.8 0.00 0.00 0.00 99 1018.5
20260906065022 18 347 3.2 4.8 0.00 0.00 0.00 99 1018.5
20260906064018 18 354 1.6 4.8 0.00 0.00 0.00 99 1018.4
20260906063035 18 352 1.6 6.4 0.00 0.00 0.00 99 1018.4
20260906062032 18 351 1.6 4.8 0.00 0.00 0.00 99 1018.4
20260906061029 18 355 1.6 4.8 0.00 0.00 0.00 99 1018.4
20260906060027 18 4 1.6 4.8 0.00 0.00 0.00 98 1018.3
20260906055022 18 351 1.6 6.4 0.00 0.00 0.00 98 1018.3
20260906054019 18 344 3.2 9.7 0.00 0.00 0.00 97 1018.1
20260906053016 18 349 3.2 14.5 0.00 0.00 0.00 97 1018.1
20260906052033 18 348 4.8 9.7 0.00 0.00 0.00 96 1018.2
20260906051031 18 345 4.8 11.3 0.00 0.00 0.00 96 1018.1
20260906050024 18 344 3.2 9.7 0.00 0.00 0.00 96 1018.3
20260906045020 18 344 3.2 11.3 0.00 0.00 0.00 96 1018.2
20260906044016 18 340 3.2 11.3 0.00 0.00 0.00 96 1018.2
20260906043033 18 340 4.8 11.3 0.00 0.00 0.00 96 1018.1
20260906042030 18 345 4.8 12.9 0.00 0.00 0.00 96 1018.1
20260906041046 18 338 3.2 11.3 0.00 0.00 0.00 96 1018.0
20260906040023 18 346 3.2 9.7 0.00 0.00 0.00 95 1018.0
20260906035020 19 341 3.2 11.3 0.00 0.00 0.00 95 1018.0
20260906034017 19 344 3.2 9.7 0.00 0.00 0.00 95 1017.9
20260906033053 19 346 4.8 9.7 0.00 0.00 0.00 95 1017.9
20260906032030 19 348 3.2 9.7 0.00 0.00 0.00 94 1017.9
20260906031027 19 347 3.2 11.3 0.00 0.00 0.00 94 1017.9
20260906030024 19 344 4.8 9.7 0.00 0.00 0.00 93 1017.9
20260906025020 19 344 3.2 12.9 0.00 0.00 0.00 92 1018.0
20260906024018 19 335 3.2 14.5 0.00 0.00 0.00 92 1017.9
20260906023034 19 336 4.8 11.3 0.00 0.00 0.00 92 1017.9
20260906022031 19 343 3.2 9.7 0.00 0.00 0.00 92 1017.9
20260906021028 19 346 4.8 12.9 0.00 0.00 0.00 93 1018.0
20260906020025 19 343 4.8 12.9 0.00 0.00 0.00 94 1017.9
20260906015022 19 337 4.8 12.9 0.00 0.00 0.00 96 1017.8
20260906014018 19 338 3.2 11.3 0.00 0.00 0.00 96 1017.6
20260906013035 19 339 3.2 11.3 0.00 0.00 0.00 96 1017.5
20260906012033 19 346 3.2 12.9 0.00 0.00 0.00 96 1017.6
20260906011048 19 342 4.8 12.9 0.00 0.00 0.00 96 1017.6
20260906010025 19 341 4.8 12.9 0.00 0.00 0.00 96 1017.4
20260906005022 19 349 4.8 12.9 0.00 0.00 0.00 97 1017.4
20260906004018 19 350 4.8 12.9 0.00 0.00 0.00 97 1017.4
20260906003055 19 340 4.8 14.5 0.00 0.00 0.00 96 1017.4
20260906002032 19 351 3.2 14.5 0.00 0.00 0.00 95 1017.4
20260906001029 20 344 3.2 12.9 0.00 0.00 0.00 94 1017.4
20260906000027 20 346 3.2 9.7 0.00 0.00 0.00 92 1017.5
20260905235022 20 355 4.8 17.7 0.00 0.00 0.00 91 1017.6
20260905234019 20 353 6.4 12.9 0.00 0.00 0.00 89 1017.5
20260905233036 21 357 6.4 16.1 0.00 0.00 0.00 86 1017.5
20260905232053 21 350 3.2 11.3 0.00 0.00 0.00 83 1017.6
20260905231030 22 4 4.8 12.9 0.00 0.00 0.00 82 1017.4
20260905230028 22 349 4.8 14.5 0.00 0.00 0.00 81 1017.3
20260905225023 22 348 4.8 12.9 0.00 0.00 0.00 81 1017.3
20260905224021 22 22 3.2 14.5 0.00 0.00 0.00 82 1017.3
20260905223017 22 354 6.4 16.1 0.00 0.00 0.00 83 1017.3
20260905222033 21 352 4.8 11.3 0.00 0.00 0.00 86 1017.3
20260905221030 21 343 6.4 14.5 0.00 0.00 0.00 85 1017.3
20260905220029 22 346 6.4 14.5 0.00 0.00 0.00 83 1017.4
20260905215044 21 2 4.8 14.5 0.00 0.00 0.00 85 1017.4
20260905214021 21 0 4.8 14.5 0.00 0.00 0.00 86 1017.4
20260905213017 21 348 4.8 14.5 0.00 0.00 0.00 87 1017.3
20260905212057 21 358 4.8 12.9 0.00 0.00 0.00 87 1017.3
20260905211052 21 3 4.8 12.9 0.00 0.00 0.00 88 1017.3
20260905210049 21 350 4.8 12.9 0.00 0.00 0.00 88 1017.3
20260905205026 21 350 6.4 14.5 0.00 0.00 0.00 87 1017.3
20260905204021 21 16 6.4 20.9 0.00 0.00 0.00 88 1017.3
20260905203018 21 343 6.4 17.7 0.00 0.00 0.00 90 1017.3
20260905202035 21 1 6.4 16.1 0.00 0.00 0.00 91 1017.3
20260905201033 21 345 4.8 12.9 0.00 0.00 0.00 92 1017.3
20260905200029 21 356 4.8 11.3 0.00 0.00 0.00 92 1017.3
20260905195025 21 343 3.2 11.3 0.00 0.00 0.00 93 1017.3
20260905194022 21 4 4.8 11.3 0.00 0.00 0.00 91 1017.3
20260905193018 21 358 4.8 12.9 0.00 0.00 0.00 91 1017.3
20260905192015 21 356 4.8 11.3 0.00 0.00 0.00 91 1017.3
20260905191032 21 356 3.2 11.3 0.00 0.00 0.00 92 1017.3
20260905190029 21 4 3.2 9.7 0.00 0.00 0.00 93 1017.4
20260905185026 21 7 3.2 9.7 0.00 0.00 0.00 94 1017.6
20260905184024 21 3 3.2 9.7 0.00 0.00 0.00 93 1017.5
20260905183020 21 356 4.8 11.3 0.00 0.00 0.00 92 1017.4
20260905182036 21 360 3.2 12.9 0.00 0.00 0.00 93 1017.4
20260905181033 21 342 6.4 12.9 0.00 0.00 0.00 93 1017.4
20260905180030 21 352 4.8 12.9 0.00 0.00 0.00 94 1017.3
20260905175027 21 351 4.8 12.9 0.00 0.00 0.00 94 1017.3
20260905174044 21 5 4.8 11.3 0.00 0.00 0.00 96 1017.2
20260905173020 20 8 4.8 11.3 0.00 0.00 0.00 96 1017.3
20260905172018 20 355 4.8 11.3 0.00 0.00 0.00 96 1017.3
20260905171034 20 357 6.4 14.5 0.00 0.00 0.00 95 1017.3
20260905170030 21 9 3.2 9.7 0.00 0.00 0.00 94 1017.3
20260905165048 21 354 3.2 9.7 0.00 0.00 0.00 94 1017.4
20260905164024 21 32 1.6 6.4 0.00 0.00 0.00 94 1017.4